QPF
0.00 0.00 0.00 0.00 0.00 0.00 0.00 0.00 0.00 0.00 0.00 0.00 0.00 0.01 0.03 0.00 0.00 0.00 0.00 0.00 0.00 0.00 0.00 0.00 0.00 0.00 0.00 0.00 0.00 0.00 0.00 0.00
0.00 0.00 0.00 0.00 0.00 0.00 0.00 0.00 0.00 0.00 0.00 0.00 0.00 0.00 0.00 0.00 0.00 0.00 0.00 0.00 0.00 0.00 0.00 0.00 0.00 0.00 0.00 0.00 0.00 0.00 0.00 0.00
0.00 0.00 0.00 0.00 0.00 0.00 0.00 0.00 0.00 0.00 0.00 0.00 0.00 0.00 0.00 0.00 0.00 0.00 0.00 0.00 0.00 0.00 0.00 0.00 0.00 0.00 0.00 0.00 0.00 0.00 0.00 0.00
0.00 0.00 0.00 0.00 0.00 0.00 0.00 0.00 0.00 0.00 0.00 0.00 0.00 0.00 0.00 0.00 0.00 0.00 0.00 0.00 0.00 0.00 0.00 0.00 0.00 0.00 0.00 0.00 0.00 0.00 0.00 0.00
0.00 0.00 0.00 0.00 0.00 0.00 0.00 0.00 0.00 0.00 0.00 0.00 0.00 0.00 0.00 0.00 0.00 0.00 0.00 0.00 0.00 0.00 0.00 0.00 0.00 0.00 0.00 0.00 0.00 0.00 0.00 0.00
0.00 0.00 0.00 0.00 0.00 0.00 0.00 0.00 0.02 0.01 0.00 0.00 0.00 0.01 0.00 0.00 0.00 0.00 0.00 0.00 0.00 0.00 0.00 0.00 0.00 0.00 0.00 0.00 0.00 0.00 0.00 0.00
0.00 0.00 0.00 0.00 0.00 0.00 0.00 0.00 0.02 0.05 0.02 0.01 0.02 0.06 0.05 0.03 0.03 0.01 0.00 0.00 0.00 0.00 0.00 0.00 0.00 0.00 0.00 0.00 0.00 0.00 0.00 0.00
0.00 0.00 0.00 0.00 0.00 0.00 0.00 0.00 0.01 0.01 0.02 0.03 0.03 0.07 0.04 0.04 0.04 0.02 0.01 0.00 0.00 0.00 0.00 0.00 0.00 0.00 0.00 0.00 0.00 0.00 0.00 0.00
0.00 0.00 0.01 0.02 0.01 0.00 0.00 0.01 0.03 0.02 0.01 0.02 0.01 0.03 0.05 0.06 0.06 0.04 0.01 0.00 0.00 0.00 0.00 0.00 0.00 0.00 0.00 0.00 0.00 0.00 0.00 0.00
0.00 0.00 0.00 0.01 0.06 0.03 0.01 0.01 0.00 0.01 0.02 0.01 0.01 0.03 0.07 0.16 0.08 0.03 0.01 0.00 0.00 0.00 0.00 0.00 0.00 0.00 0.00 0.00 0.00 0.00 0.00 0.00
0.00 0.00 0.00 0.01 0.03 0.02 0.00 0.00 0.00 0.00 0.00 0.04 0.05 0.08 0.09 0.09 0.07 0.02 0.02 0.01 0.00 0.00 0.00 0.00 0.00 0.00 0.00 0.00 0.00 0.00 0.00 0.00
0.00 0.00 0.00 0.00 0.00 0.00 0.00 0.00 0.00 0.00 0.00 0.01 0.05 0.07 0.08 0.09 0.06 0.03 0.01 0.00 0.00 0.00 0.00 0.00 0.00 0.00 0.00 0.00 0.00 0.00 0.00 0.00
0.00 0.00 0.00 0.00 0.00 0.00 0.01 0.01 0.02 0.03 0.06 0.06 0.10 0.09 0.07 0.04 0.03 0.01 0.00 0.00 0.00 0.00 0.00 0.00 0.00 0.00 0.00 0.00 0.00 0.00 0.00 0.00
0.00 0.00 0.00 0.00 0.00 0.00 0.04 0.02 0.03 0.10 0.10 0.06 0.06 0.04 0.03 0.01 0.01 0.00 0.00 0.00 0.00 0.00 0.00 0.00 0.00 0.00 0.00 0.00 0.00 0.00 0.00 0.00
0.00 0.00 0.00 0.00 0.00 0.04 0.06 0.04 0.04 0.10 0.09 0.06 0.04 0.02 0.02 0.01 0.00 0.00 0.00 0.00 0.00 0.00 0.00 0.00 0.00 0.00 0.00 0.00 0.00 0.00 0.00 0.00
0.00 0.00 0.00 0.01 0.02 0.04 0.04 0.03 0.04 0.04 0.04 0.04 0.01 0.01 0.01 0.00 0.00 0.00 0.00 0.00 0.00 0.00 0.00 0.00 0.00 0.00 0.00 0.00 0.00 0.00 0.00 0.00
0.00 0.00 0.00 0.00 0.00 0.00 0.00 0.01 0.01 0.01 0.01 0.00 0.00 0.00 0.00 0.00 0.00 0.00 0.00 0.00 0.00 0.00 0.00 0.00 0.00 0.00 0.00 0.00 0.00 0.00 0.00 0.00
0.00 0.00 0.00 0.00 0.00 0.00 0.00 0.00 0.00 0.00 0.00 0.01 0.01 0.00 0.00 0.00 0.00 0.00 0.00 0.00 0.00 0.00 0.00 0.00 0.00 0.00 0.00 0.00 0.00 0.00 0.00 0.00
0.00 0.00 0.00 0.00 0.00 0.00 0.00 0.00 0.00 0.00 0.00 0.00 0.00 0.00 0.00 0.00 0.00 0.00 0.00 0.00 0.00 0.00 0.00 0.00 0.00 0.00 0.00 0.00 0.00 0.00 0.00 0.00
MSLP
1015.92 1016.41 1016.98 1017.58 1017.97 1018.05 1018.35 1018.68 1019.12 1019.66 1020.15 1020.72 1021.24 1021.62 1022.02 1022.29 1022.27 1022.82 1022.95 1023.24 1023.49 1023.89 1024.41 1024.67 1025.14 1025.83 1026.43 1026.54 1026.71 1026.94 1027.49 1027.89
1015.61 1015.98 1016.60 1017.23 1017.62 1017.80 1018.15 1018.62 1019.17 1019.64 1020.27 1021.00 1021.59 1021.87 1022.12 1022.32 1022.26 1022.63 1022.84 1023.31 1023.51 1023.96 1024.44 1025.20 1025.54 1025.90 1026.45 1026.46 1026.92 1027.44 1028.13 1028.23
1015.19 1015.62 1016.09 1016.47 1016.86 1017.22 1017.70 1018.12 1018.70 1019.16 1019.67 1020.30 1020.94 1021.40 1021.91 1021.93 1022.15 1022.53 1022.77 1023.09 1023.63 1024.24 1024.58 1025.25 1025.58 1026.04 1026.31 1026.65 1026.93 1027.88 1028.21 1028.06
1014.64 1015.03 1015.29 1015.80 1016.27 1016.70 1017.19 1017.64 1018.20 1018.78 1019.25 1020.06 1020.82 1021.59 1021.91 1021.97 1022.29 1022.57 1022.78 1023.19 1023.74 1024.14 1024.51 1025.12 1025.56 1025.79 1026.53 1026.90 1027.24 1027.58 1027.99 1028.12
1014.02 1014.48 1014.96 1015.28 1015.96 1016.64 1016.99 1017.43 1018.05 1018.59 1019.01 1019.57 1020.15 1020.59 1021.27 1021.47 1021.76 1022.25 1022.77 1023.25 1023.72 1024.18 1024.61 1024.99 1025.40 1026.03 1026.72 1027.10 1027.30 1027.25 1026.94 1027.55
1013.07 1013.46 1013.85 1014.63 1015.46 1016.06 1016.57 1017.20 1017.82 1018.13 1018.72 1019.08 1019.68 1020.27 1020.64 1021.08 1021.63 1022.30 1023.00 1023.46 1023.77 1024.06 1024.38 1024.85 1025.50 1026.15 1026.62 1026.86 1026.74 1027.26 1026.52 1027.20
1012.20 1012.93 1013.85 1014.61 1015.31 1015.72 1016.16 1016.71 1017.20 1017.71 1018.19 1018.71 1019.15 1019.81 1020.51 1021.28 1022.00 1022.43 1023.04 1023.47 1023.89 1024.14 1024.53 1025.08 1025.53 1025.88 1025.96 1026.17 1025.99 1026.93 1026.99 1027.36
1011.98 1012.62 1013.30 1014.03 1014.70 1015.38 1015.99 1016.21 1016.69 1017.25 1017.80 1018.22 1018.76 1019.32 1020.00 1020.79 1021.39 1021.97 1022.75 1023.10 1023.62 1023.92 1024.27 1024.78 1025.07 1025.37 1025.97 1026.04 1025.80 1026.16 1026.84 1027.22
1011.44 1011.89 1012.66 1013.52 1014.09 1014.77 1015.41 1015.86 1016.24 1016.67 1017.11 1017.61 1018.21 1018.82 1019.55 1020.24 1020.75 1021.22 1021.91 1022.22 1022.81 1023.58 1024.07 1024.18 1024.87 1024.59 1024.78 1025.10 1025.57 1025.81 1026.32 1026.71
1011.07 1011.83 1012.26 1013.07 1013.65 1014.02 1014.66 1015.26 1015.65 1016.01 1016.34 1017.02 1017.65 1018.25 1018.91 1019.59 1020.12 1020.82 1021.46 1021.94 1022.43 1022.96 1023.26 1023.13 1023.64 1024.34 1024.62 1025.21 1025.65 1025.95 1026.19 1026.40
1011.40 1011.88 1012.26 1012.54 1012.91 1013.41 1014.25 1014.67 1014.94 1015.26 1015.96 1016.57 1017.10 1017.66 1018.36 1018.97 1019.48 1020.18 1020.49 1021.02 1021.13 1021.76 1022.57 1023.05 1023.47 1023.82 1024.28 1024.65 1025.20 1025.67 1026.37 1026.36
1011.42 1011.61 1012.00 1012.39 1012.96 1013.35 1013.68 1014.23 1014.77 1015.11 1015.58 1016.24 1016.80 1017.40 1018.11 1018.66 1018.75 1019.31 1019.44 1020.14 1021.12 1022.12 1022.79 1023.21 1023.65 1024.13 1024.59 1024.90 1024.97 1025.32 1025.71 1026.11
1011.52 1011.77 1012.10 1012.33 1012.51 1013.05 1013.38 1013.91 1014.42 1014.97 1015.30 1015.91 1016.69 1017.27 1017.71 1018.35 1018.91 1019.48 1019.94 1020.55 1021.11 1022.02 1022.48 1022.72 1023.33 1023.84 1024.18 1024.78 1025.21 1025.18 1025.36 1025.70
1011.34 1011.78 1012.11 1012.22 1012.56 1013.04 1013.51 1013.78 1014.17 1014.85 1015.23 1015.94 1016.54 1017.15 1017.73 1018.29 1018.86 1019.30 1019.68 1020.45 1021.02 1021.69 1022.17 1022.93 1023.20 1023.35 1023.93 1024.35 1024.56 1024.68 1024.89 1025.04
1011.00 1011.47 1011.82 1012.42 1012.78 1013.38 1013.56 1014.02 1014.28 1014.94 1015.41 1016.12 1016.80 1017.45 1017.86 1018.30 1018.73 1019.29 1019.85 1020.34 1020.73 1021.91 1022.38 1023.07 1023.56 1023.87 1024.11 1024.09 1024.20 1024.24 1024.39 1024.47
1011.29 1011.56 1011.92 1012.43 1012.60 1013.05 1013.38 1013.93 1014.55 1015.14 1015.62 1016.29 1017.00 1017.59 1018.04 1018.57 1018.96 1019.55 1020.55 1021.03 1021.99 1022.12 1022.49 1023.05 1023.52 1023.82 1023.77 1023.74 1023.81 1023.72 1023.67 1023.93
1012.13 1012.22 1012.17 1012.57 1012.87 1013.05 1013.34 1013.83 1014.34 1014.84 1015.62 1016.58 1017.34 1017.91 1018.47 1019.09 1019.63 1020.29 1020.76 1021.52 1021.83 1022.43 1022.94 1023.06 1023.35 1023.34 1023.33 1023.14 1023.22 1023.22 1023.28 1023.52
1013.41 1013.45 1013.50 1013.43 1013.59 1013.57 1014.07 1014.60 1015.12 1015.71 1016.30 1016.94 1017.53 1018.25 1019.14 1019.91 1020.55 1021.13 1021.95 1022.11 1022.32 1022.46 1022.96 1022.92 1023.07 1022.87 1022.79 1022.68 1022.55 1022.67 1022.83 1022.97
1014.79 1014.93 1014.79 1014.88 1014.89 1014.90 1015.10 1015.47 1016.04 1016.60 1017.25 1017.82 1018.37 1018.93 1019.65 1020.41 1021.20 1021.67 1022.12 1022.39 1022.53 1022.55 1022.69 1022.63 1022.77 1022.53 1022.30 1022.22 1022.17 1022.27 1022.47 1022.54
Thickness
5636 5633 5630 5626 5625 5627 5626 5625 5623 5619 5614 5609 5606 5602 5599 5598 5601 5595 5595 5594 5591 5587 5581 5578 5570 5562 5555 5550 5545 5540 5532 5524
5639 5637 5634 5630 5628 5629 5626 5623 5618 5615 5611 5604 5599 5597 5597 5597 5599 5595 5594 5589 5586 5581 5575 5566 5561 5555 5547 5542 5536 5528 5518 5512
5642 5640 5638 5636 5634 5632 5628 5625 5620 5617 5614 5609 5604 5601 5597 5599 5597 5593 5590 5586 5579 5571 5567 5559 5554 5547 5540 5533 5527 5513 5506 5503
5644 5642 5642 5640 5637 5634 5631 5628 5624 5619 5616 5609 5604 5598 5597 5597 5592 5589 5585 5578 5570 5566 5561 5554 5547 5540 5529 5521 5513 5506 5497 5491
5650 5648 5643 5641 5637 5632 5630 5628 5623 5619 5616 5612 5607 5605 5599 5596 5592 5586 5578 5570 5564 5559 5553 5547 5539 5529 5518 5509 5502 5498 5494 5484
5656 5654 5653 5647 5640 5636 5632 5627 5622 5620 5616 5614 5607 5602 5598 5592 5586 5577 5568 5561 5556 5551 5546 5539 5528 5517 5508 5499 5495 5486 5486 5476
5662 5657 5649 5641 5635 5634 5632 5628 5624 5620 5616 5611 5607 5600 5591 5583 5574 5567 5559 5553 5547 5541 5535 5526 5516 5508 5501 5493 5489 5478 5473 5465
5657 5653 5648 5642 5637 5633 5629 5628 5625 5621 5615 5611 5604 5596 5588 5579 5572 5564 5554 5547 5540 5534 5526 5517 5509 5502 5492 5485 5481 5475 5463 5452
5659 5656 5651 5643 5639 5635 5630 5627 5624 5620 5615 5608 5601 5594 5586 5577 5570 5563 5554 5546 5536 5526 5517 5512 5505 5500 5493 5484 5474 5464 5454 5442
5661 5653 5651 5644 5640 5638 5633 5628 5624 5619 5613 5606 5599 5592 5583 5575 5568 5558 5549 5541 5532 5523 5517 5512 5503 5491 5481 5470 5459 5450 5441 5431
5653 5650 5648 5646 5643 5640 5632 5627 5623 5618 5610 5602 5595 5587 5579 5571 5566 5557 5549 5539 5533 5524 5512 5502 5492 5483 5472 5461 5450 5439 5426 5418
5649 5649 5646 5643 5639 5635 5630 5624 5618 5611 5605 5597 5590 5582 5574 5568 5564 5555 5549 5538 5523 5510 5497 5487 5478 5467 5456 5447 5438 5427 5417 5405
5644 5643 5640 5639 5636 5629 5625 5620 5615 5609 5601 5594 5584 5576 5570 5561 5552 5544 5534 5524 5513 5498 5486 5478 5468 5458 5447 5435 5423 5416 5405 5392
5643 5638 5634 5634 5630 5624 5617 5616 5610 5600 5594 5585 5577 5569 5562 5553 5544 5536 5526 5513 5502 5491 5481 5467 5457 5449 5436 5426 5415 5404 5394 5384
5641 5637 5633 5626 5621 5613 5611 5606 5602 5593 5585 5577 5568 5558 5551 5542 5534 5524 5513 5503 5493 5478 5466 5455 5443 5431 5422 5412 5403 5394 5383 5373
5633 5631 5626 5620 5618 5612 5608 5600 5592 5584 5576 5567 5557 5547 5538 5529 5520 5510 5495 5486 5472 5466 5453 5442 5430 5418 5409 5401 5393 5384 5374 5362
5618 5619 5619 5614 5610 5605 5599 5590 5581 5574 5565 5552 5542 5532 5523 5513 5503 5491 5481 5470 5460 5447 5433 5426 5415 5407 5397 5390 5381 5371 5362 5349
5600 5598 5596 5596 5592 5591 5583 5573 5566 5557 5548 5539 5529 5517 5505 5493 5483 5472 5459 5452 5443 5436 5423 5414 5404 5396 5388 5379 5370 5361 5349 5337
5577 5575 5576 5572 5570 5567 5563 5557 5548 5539 5529 5519 5509 5499 5488 5476 5463 5453 5442 5434 5427 5418 5410 5402 5392 5384 5376 5367 5358 5348 5336 5324